This demonstration page uses our WeatherBlox Daily Observations layout. Learn more.

Left ArrowRight Arrow

34.74481, -87.66753

Hourly Observations for December 27, 2018

Temp ( °F °C ) Dew Point ( °F °C ) Humidity (%) Winds ( mph kmh ) Pressure ( in mb ) Visibility ( mi km ) Precip ( " mm )
12:53 am 00:53 Cloudy 54 12.2 40 4.4 59 59 SE 15 24 30.15 1021 10 16 0.00 0.00
1:53 am 01:53 Cloudy with Light Rain 52 11.1 43 6.1 72 72 SE 13 20 30.13 1020 10 16 0.01 0.25
2:53 am 02:53 Cloudy with Light Rain 52 11.1 44 6.7 75 75 ESE 14 22 30.09 1019 10 16 0.01 0.25
3:53 am 03:53 Cloudy 52 11.1 43 6.1 72 72 ESE 15 24 30.06 1018 10 16 0.00 0.03
4:29 am 04:29 Cloudy 52 11.1 43 6.1 72 72 SE 9 15 30.09 1019 10 16 0.00 0.03
4:53 am 04:53 Cloudy with Light Rain 52 11.1 44 6.7 75 75 ESE 10 17 30.08 1019 10 16 0.01 0.25
5:00 am 05:00 Cloudy with Rain 51 10.6 44 6.7 77 77 ESE 10 17 30.09 1019 9 14 0.01 0.25
5:53 am 05:53 Cloudy 52 11.1 45 7.2 77 77 E 13 20 30.04 1017 10 16 0.02 0.51
6:39 am 06:39 undefined 53 11.7 45 7.2 74 74 undefined N/A 30.03 1017 N/A 0.00 0.03
6:53 am 06:53 undefined N/A N/A N/A undefined N/A N/A N/A 0.00 0.03
7:53 am 07:53 undefined N/A N/A N/A undefined N/A N/A N/A 0.00 0.00
8:53 am 08:53 Cloudy 57 13.9 50 10 78 78 SE 16 26 30.02 1017 10 16 0.00 0.00
9:45 am 09:45 undefined 58 14.4 51 10.6 78 78 undefined N/A 30.03 1017 N/A 0.00 0.03
9:53 am 09:53 undefined 58 14.4 52 11.1 81 81 SSE 14 22 30.03 1017 N/A 0.01 0.25
10:22 am 10:22 Cloudy 59 15 53 11.7 81 81 SE 20 31 30.03 1017 10 16 0.00 0.03
10:53 am 10:53 Cloudy 60 15.6 53 11.7 78 78 SSE 16 26 29.98 1015 10 16 0.00 0.03
11:53 am 11:53 Cloudy 61 16.1 54 12.2 78 78 SSE 22 35 29.94 1014 10 16 0.00 0.00
12:53 pm 12:53 Cloudy 63 17.2 53 11.7 70 70 SSE 23 37 29.91 1013 10 16 0.00 0.00
1:53 pm 13:53 Cloudy 62 16.7 54 12.2 75 75 SSE 18 30 29.90 1013 10 16 0.00 0.00
2:32 pm 14:32 Cloudy with Nearby Thunderstorms 61 16.1 55 12.8 81 81 WSW 24 39 29.97 1015 8 13 0.01 0.25
2:37 pm 14:37 Cloudy with Thunderstorms 60 15.6 55 12.8 84 84 W 30 48 29.97 1015 2 2 0.18 4.57
2:39 pm 14:39 Cloudy with Strong Thunderstorms 59 15 55 12.8 87 87 W 29 46 30.00 1016 1 1 0.34 8.64
2:53 pm 14:53 Cloudy with Strong Thunderstorms 57 13.9 56 13.3 96 96 W 12 19 30.00 1016 2 2 0.64 16.26
2:57 pm 14:57 Cloudy with Nearby Thunderstorms 58 14.4 56 13.3 93 93 WNW 8 13 30.00 1016 2 3 0.02 0.51
3:02 pm 15:02 Cloudy with Thunderstorms 58 14.4 56 13.3 93 93 WNW 7 11 30.00 1016 3 5 0.02 0.51
3:14 pm 15:14 Cloudy with Thunderstorms 58 14.4 55 12.8 90 90 Calm 30.00 1016 5 8 0.04 1.02
3:23 pm 15:23 Cloudy with Rain 58 14.4 55 12.8 90 90 Calm 30.00 1016 3 5 0.07 1.78
3:49 pm 15:49 Cloudy with Heavy Rain 55 13 55 13 100 100 ESE 5 7 30.00 1016 3 4 0.17 4.32
3:53 pm 15:53 Cloudy with Heavy Rain 56 13.3 55 12.8 97 97 ESE 6 9 29.99 1016 3 4 0.19 4.83
4:00 pm 16:00 Cloudy with Heavy Rain 57 13.9 55 12.8 93 93 E 6 9 30.00 1016 3 5 0.03 0.76
4:33 pm 16:33 Cloudy with Rain 57 13.9 55 12.8 93 93 SE 7 11 30.00 1016 9 14 0.07 1.78
4:53 pm 16:53 Cloudy with Rain 57 13.9 55 12.8 93 93 SE 6 9 29.99 1016 9 14 0.12 3.05
5:53 pm 17:53 Cloudy with Heavy Rain 57 13.9 55 12.8 93 93 ESE 24 39 29.91 1013 5 8 0.16 4.06
6:53 pm 18:53 Cloudy with Light Rain 58 14.4 56 13.3 93 93 ESE 15 24 29.91 1013 10 16 0.10 2.54
7:53 pm 19:53 Partly Cloudy with Light Rain 61 16.1 56 13.3 84 84 SSE 10 17 29.88 1012 10 16 0.00 0.03
8:53 pm 20:53 undefined 61 16.1 57 13.9 87 87 undefined N/A 29.87 1011 N/A 0.00 0.03
9:53 pm 21:53 Mostly Clear 60 15.6 57 13.9 90 90 SE 8 13 29.87 1011 10 16 0.00 0.00
10:53 pm 22:53 Partly Cloudy 61 16.1 57 13.9 87 87 SSE 7 11 29.85 1011 10 16 0.00 0.00
11:53 pm 23:53 Cloudy with Rain 62 16.7 59 15 90 90 S 16 26 29.87 1011 7 11 0.04 1.02

Powered by AerisWeather